Location: Melbourne
(37.8170°S, 144.9670°E)
Time: 01:33:15
(UTC+10:00)

CZ-3 R/B - Visible Passes

Search period start: 01 August 2014 00:00
Search period end: 11 August 2014 00:00
Orbit: 216 x 15116 km, 28.5° (Epoch: 30 July)

Date Brightness Start Highest point End Pass type
(mag) Time Alt. Az. Time Alt. Az. Time Alt. Az.
01 Aug 6.7 03:25:07 10° NNW 05:33:41 57° NE 06:36:57 10° E visible
02 Aug 6.6 02:20:41 10° N 04:14:36 47° NE 05:29:16 10° E visible
03 Aug 6.5 01:19:15 10° N 02:59:09 35° ENE 04:18:00 10° E visible
03 Aug 6.5 06:26:30 10° WNW 08:57:23 73° N 09:24:49 10° E visible
04 Aug 6.5 00:23:54 10° NNE 01:47:29 23° ENE 02:59:16 10° E visible
04 Aug 6.9 05:11:11 10° NW 07:39:51 71° NNE 08:20:14 10° E visible
05 Aug 6.8 00:06:32 10° ENE 00:39:22 11° E 01:08:56 10° E visible
05 Aug 6.7 04:00:40 10° NW 06:17:00 66° NNE 07:14:25 10° E visible
06 Aug 6.6 02:53:17 10° NNW 04:53:06 57° NE 06:06:56 10° E visible
07 Aug 6.5 01:48:22 10° N 03:32:32 46° NE 04:56:56 10° E visible
08 Aug 6.4 00:46:17 10° N 02:16:26 34° ENE 03:42:34 10° ESE visible
08 Aug 6.9 05:47:18 10° WNW 08:19:32 74° N 08:53:20 10° E visible
08 Aug 6.4 23:50:39 10° NE 01:04:31 21° ENE 02:18:31 10° E visible
09 Aug 6.7 04:33:18 10° NW 06:56:44 72° NNE 07:47:04 10° E visible
10 Aug 6.6 03:23:12 10° NW 05:29:05 66° NNE 06:39:21 10° E visible
